Weather Roundup
Issued by NWS Chicago, IL

Home | Current Version | Previous Version | Text Only | Print | Product List | Glossary On
Versions: 1 2 3 4 5 6 7 8 9 10 11 12 13 14 15 16 17 18 19 20 21 22 23 24 25 26 27 28 29 30 31 32 33 34 35 36 37 38 39 40 41 42 43 44 45 46 47 48 49 50
000
NZUS59 KLOT 011721
HRRLOT

CHICAGO AREA WEATHER ROUNDUP
NATIONAL WEATHER SERVICE CHICAGO/ROMEOVILLE IL
1200 PM CDT WED JUL 01 2015

NOTE: "FAIR" INDICATES FEW OR NO CLOUDS BELOW 12,000 FEET WITH NO
SIGNIFICANT WEATHER AND/OR OBSTRUCTIONS TO VISIBILITY.

* THESE STATIONS ARE NOT UNDER NWS QUALITY CONTROL. THEY ALSO MAY NOT
  REPORT WEATHER SUCH AS PRECIPITATION OR FOG.

ILZ005-006-012>014-019>023-011800-
NORTHEAST ILLINOIS

CITY           SKY/WX    TMP DP  RH WIND       PRES   REMARKS
OHARE          PTSUNNY   68  55  63 N8        29.97S
MIDWAY         PTSUNNY   67  54  63 NE8       29.97S
AURORA         CLOUDY    68  56  65 VRB7      29.98R
LANSING*       MOSUNNY   65  53  64 E7        29.98S
JOLIET*        CLOUDY    69  59  69 N3        29.97S
WAUKEGAN       SUNNY     59  50  72 NE9       29.98S
DUPAGE AIRPORT PTSUNNY   69  57  65 N5        29.97S
WHEELING       PTSUNNY   67  55  65 N10G17    29.98F
KANKAKEE*      CLOUDY    68  59  73 E5        29.97S
MORRIS*        CLOUDY    68  58  68 E6        29.95F
LEWIS AIRPORT* PTSUNNY   69  56  63 SE3       29.97F
NORTHERLY IS     N/A     60  53  77 NE8         N/A
$$

WIZ051-052-058>065-066-070>072-011800-
SOUTHEAST WISCONSIN

CITY           SKY/WX    TMP DP  RH WIND       PRES   REMARKS
MILWAUKEE      MOSUNNY   62  50  64 E12       29.98S
KENOSHA*       SUNNY     64  51  62 E8        29.99S
RACINE*        SUNNY     63  50  62 NE10      30.00S
BURLINGTON     MOSUNNY   66  50  56 N5        29.98S
WAUKESHA       MOSUNNY   63  48  59 NW6       29.99S
WEST BEND      CLOUDY    63  50  63 NE5       29.99R
$$

INZ001>003-010>013-019-020-011800-
NORTHWEST INDIANA

CITY           SKY/WX    TMP DP  RH WIND       PRES   REMARKS
GARY*          PTSUNNY   63  55  77 NE14      29.99R
MICHIGAN CITY* NOT AVBL
RENSSELAER*    NOT AVBL
VALPARAISO     PTSUNNY   68  56  65 N6        29.98R
$$

LMZ740>746-011800-
SOUTHERN LAKE MICHIGAN

STATION/POSITION TIME  SKY/WX   TEMP WIND        PRES    VSBY
                                AIR  DIR/SP/G
                 (UTC)          (F)  (DEG/KT/KT) (MB)    (MI)
HARRISON CRIB    1700            56   50/  8/ 10   N/A
BURNHAM HARBOR   1700            60   40/  8/  9   N/A
CALUMET HARBOR   1600            58   20/  9/ 11   N/A
BURNS HARBOR     1600            58   20/  9/ 10 1015.9S
MICHIGAN CITY    1700            57  350/ 11/ 14   N/A
$$

ABBREVIATIONS USED IN REMARKS
   TC - TEMPERATURE IN CELSIUS
  WCI - WIND CHILL INDEX
   HX - HEAT INDEX
  VSB - VISIBILITY
$$


USA.gov is the U.S. government's official web portal to all federal, state and local government web resources and services.